TimeEST,TemperatureF,Dew PointF,Humidity,Sea Level PressureIn,VisibilityMPH,Wind Direction,Wind SpeedMPH,Gust SpeedMPH,PrecipitationIn,Events,Conditions,WindDirDegrees,DateUTC
12:19 AM,48.2,42.8,82,29.37,2.5,Variable,3.5,18.4,0.09,Rain,Light Rain,0,2012-01-13 05:19:00
12:27 AM,48.2,42.8,82,29.37,10.0,Variable,3.5,-,0.09,Rain,Light Rain,0,2012-01-13 05:27:00
12:53 AM,46.9,43.0,86,29.36,10.0,Calm,Calm,-,0.09,,Overcast,0,2012-01-13 05:53:00
1:53 AM,44.1,36.0,73,29.41,10.0,WNW,8.1,21.9,0.00,,Overcast,290,2012-01-13 06:53:00
2:53 AM,39.9,28.0,63,29.46,10.0,West,9.2,19.6,N/A,,Overcast,280,2012-01-13 07:53:00
3:53 AM,37.9,23.0,55,29.49,10.0,West,9.2,-,N/A,,Overcast,280,2012-01-13 08:53:00
4:53 AM,36.0,17.1,46,29.54,10.0,West,8.1,-,N/A,,Clear,260,2012-01-13 09:53:00
5:53 AM,34.0,16.0,48,29.59,10.0,WSW,11.5,18.4,N/A,,Clear,250,2012-01-13 10:53:00
6:53 AM,32.0,14.0,48,29.63,10.0,West,10.4,21.9,N/A,,Overcast,270,2012-01-13 11:53:00
7:53 AM,32.0,14.0,48,29.65,10.0,WSW,9.2,20.7,N/A,,Scattered Clouds,250,2012-01-13 12:53:00
8:53 AM,33.1,14.0,46,29.69,10.0,WSW,8.1,-,N/A,,Mostly Cloudy,240,2012-01-13 13:53:00
9:53 AM,34.0,12.0,40,29.72,10.0,West,17.3,34.5,N/A,,Mostly Cloudy,260,2012-01-13 14:53:00
10:53 AM,34.0,12.9,42,29.73,10.0,West,17.3,34.5,N/A,,Mostly Cloudy,270,2012-01-13 15:53:00
11:53 AM,34.0,12.0,40,29.73,10.0,West,17.3,34.5,N/A,,Clear,260,2012-01-13 16:53:00
12:53 PM,34.0,12.9,42,29.75,10.0,SW,12.7,25.3,N/A,,Mostly Cloudy,220,2012-01-13 17:53:00
1:53 PM,37.0,14.0,39,29.76,10.0,WSW,10.4,18.4,N/A,,Clear,250,2012-01-13 18:53:00
2:53 PM,37.0,15.1,41,29.78,10.0,WSW,12.7,21.9,N/A,,Clear,240,2012-01-13 19:53:00
3:53 PM,37.0,16.0,42,29.81,10.0,WSW,9.2,18.4,N/A,,Clear,250,2012-01-13 20:53:00
4:53 PM,34.0,15.1,46,29.86,10.0,SW,8.1,-,N/A,,Partly Cloudy,230,2012-01-13 21:53:00
5:53 PM,32.0,15.1,50,29.90,10.0,WSW,6.9,-,N/A,,Clear,240,2012-01-13 22:53:00
6:53 PM,30.9,12.9,47,29.92,10.0,West,6.9,-,N/A,,Clear,260,2012-01-13 23:53:00
7:53 PM,28.9,12.9,51,29.94,10.0,Variable,3.5,-,N/A,,Clear,0,2012-01-14 00:53:00
8:53 PM,28.9,12.9,51,29.96,10.0,Variable,3.5,-,N/A,,Clear,0,2012-01-14 01:53:00
9:53 PM,28.4,12.2,51,29.94,10.0,Variable,3.5,-,N/A,,Clear,0,2012-01-14 02:53:00
10:53 PM,28.0,12.0,51,29.98,10.0,Variable,3.5,-,N/A,,Clear,0,2012-01-14 03:53:00
11:53 PM,28.0,12.9,53,29.99,10.0,Calm,Calm,-,N/A,,Clear,0,2012-01-14 04:53:00